• In Netherlands
  • List of Countries
  • For 7 days
  • Water Temperature
  • Satellite Maps
  • Weather Map
  • Weather Widgets
  • user-avatar
    Login

    Hourly Weather Nashavar

    Today, 21 February, Tuesday

    Time Temperature Precipitation Wind Pressure Humidity
    00:00 +13°C° 0 mm 4 mps 725 mmHg 21%
    01:00 +12°C° 0 mm 3 mps 726 mmHg 21%
    02:00 +12°C° 0 mm 3 mps 726 mmHg 22%
    03:00 +11°C° 0 mm 3 mps 726 mmHg 22%
    04:00 +11°C° 0 mm 3 mps 726 mmHg 22%
    05:00 +11°C° 0 mm 3 mps 725 mmHg 22%
    06:00 +11°C° 0 mm 3 mps 725 mmHg 22%
    07:00 +11°C° 0 mm 3 mps 726 mmHg 22%
    08:00 +11°C° 0 mm 3 mps 726 mmHg 22%
    09:00 +13°C° 0 mm 3 mps 726 mmHg 18%
    10:00 +17°C° 0 mm 3 mps 727 mmHg 15%
    11:00 +19°C° 0 mm 3 mps 726 mmHg 12%
    12:00 +20°C° 0 mm 3 mps 726 mmHg 11%
    13:00 +21°C° 0 mm 3 mps 726 mmHg 11%
    14:00 +21°C° 0 mm 3 mps 726 mmHg 11%
    15:00 +21°C° 0 mm 3 mps 727 mmHg 12%
    16:00 +21°C° 0 mm 2 mps 727 mmHg 14%
    17:00 +20°C° 0 mm 2 mps 727 mmHg 15%
    18:00 +18°C° 0 mm 2 mps 727 mmHg 16%
    19:00 +17°C° 0 mm 2 mps 727 mmHg 17%
    20:00 +15°C° 0 mm 2 mps 728 mmHg 19%
    21:00 +14°C° 0 mm 2 mps 728 mmHg 19%
    22:00 +14°C° 0 mm 2 mps 728 mmHg 19%
    23:00 +13°C° 0 mm 2 mps 729 mmHg 19%

    Tomorrow, 22 February, Wednesday

    Time Temperature Precipitation Wind Pressure Humidity
    00:00 +13°C° 0 mm 2 mps 729 mmHg 19%
    01:00 +13°C° 0 mm 2 mps 729 mmHg 19%
    02:00 +12°C° 0 mm 2 mps 729 mmHg 20%
    03:00 +12°C° 0 mm 2 mps 729 mmHg 20%
    04:00 +10°C° 0 mm 2 mps 729 mmHg 21%
    05:00 +10°C° 0 mm 2 mps 730 mmHg 21%
    06:00 +10°C° 0 mm 2 mps 730 mmHg 21%
    07:00 +12°C° 0 mm 2 mps 731 mmHg 22%
    08:00 +12°C° 0 mm 2 mps 731 mmHg 22%
    09:00 +14°C° 0 mm 2 mps 732 mmHg 19%
    10:00 +16°C° 0 mm 2 mps 732 mmHg 16%
    11:00 +19°C° 0 mm 2 mps 732 mmHg 13%
    12:00 +19°C° 0 mm 2 mps 732 mmHg 14%
    13:00 +20°C° 0 mm 2 mps 732 mmHg 14%
    14:00 +21°C° 0 mm 2 mps 732 mmHg 15%
    15:00 +22°C° 0 mm 1 mps 732 mmHg 17%
    16:00 +21°C° 0 mm 1 mps 732 mmHg 20%
    17:00 +21°C° 0 mm 1 mps 732 mmHg 22%
    18:00 +19°C° 0 mm 1 mps 732 mmHg 23%
    19:00 +17°C° 0 mm 2 mps 732 mmHg 24%
    20:00 +15°C° 0 mm 2 mps 733 mmHg 24%
    21:00 +15°C° 0 mm 2 mps 733 mmHg 25%
    22:00 +14°C° 0 mm 2 mps 733 mmHg 25%
    23:00 +14°C° 0 mm 2 mps 733 mmHg 25%

    Day after tomorrow, 23 February, Thursday

    Time Temperature Precipitation Wind Pressure Humidity
    00:00 +13°C° 0 mm 2 mps 733 mmHg 26%
    01:00 +13°C° 0 mm 2 mps 733 mmHg 26%
    02:00 +12°C° 0 mm 2 mps 733 mmHg 26%
    03:00 +12°C° 0 mm 2 mps 733 mmHg 26%
    04:00 +10°C° 0 mm 2 mps 733 mmHg 26%
    05:00 +10°C° 0 mm 2 mps 733 mmHg 27%
    06:00 +10°C° 0 mm 2 mps 733 mmHg 26%
    07:00 +12°C° 0 mm 2 mps 733 mmHg 26%
    08:00 +12°C° 0 mm 2 mps 734 mmHg 26%
    09:00 +14°C° 0 mm 2 mps 734 mmHg 22%
    10:00 +16°C° 0 mm 2 mps 734 mmHg 19%
    11:00 +19°C° 0 mm 3 mps 734 mmHg 15%
    12:00 +19°C° 0 mm 2 mps 734 mmHg 15%
    13:00 +20°C° 0 mm 2 mps 734 mmHg 14%
    14:00 +21°C° 0 mm 2 mps 733 mmHg 13%
    15:00 +21°C° 0 mm 2 mps 733 mmHg 15%
    16:00 +21°C° 0 mm 2 mps 733 mmHg 16%
    17:00 +20°C° 0 mm 2 mps 733 mmHg 17%
    18:00 +19°C° 0 mm 2 mps 733 mmHg 19%
    19:00 +17°C° 0 mm 2 mps 734 mmHg 20%
    20:00 +14°C° 0 mm 3 mps 734 mmHg 22%
    21:00 +14°C° 0 mm 3 mps 735 mmHg 21%
    22:00 +13°C° 0 mm 3 mps 735 mmHg 21%
    23:00 +13°C° 0 mm 3 mps 735 mmHg 21%

    24 February, Friday

    Time Temperature Precipitation Wind Pressure Humidity
    00:00 +13°C° 0 mm 2 mps 735 mmHg 21%
    01:00 +13°C° 0 mm 2 mps 735 mmHg 22%
    02:00 +12°C° 0 mm 2 mps 735 mmHg 22%
    03:00 +12°C° 0 mm 2 mps 734 mmHg 22%
    04:00 +10°C° 0 mm 2 mps 734 mmHg 23%
    05:00 +10°C° 0 mm 2 mps 733 mmHg 23%
    06:00 +12°C° 0 mm 2 mps 734 mmHg 23%
    07:00 +12°C° 0 mm 2 mps 734 mmHg 23%
    08:00 +13°C° 0 mm 2 mps 734 mmHg 23%
    09:00 +15°C° 0 mm 2 mps 734 mmHg 19%
    10:00 +17°C° 0 mm 2 mps 734 mmHg 16%
    11:00 +21°C° 0 mm 1 mps 734 mmHg 13%
    12:00 +22°C° 0 mm 1 mps 734 mmHg 12%
    13:00 +23°C° 0 mm 1 mps 733 mmHg 11%
    14:00 +24°C° 0 mm 1 mps 733 mmHg 10%
    15:00 +24°C° 0 mm 1 mps 733 mmHg 13%
    16:00 +23°C° 0 mm 1 mps 732 mmHg 16%
    17:00 +23°C° 0 mm 1 mps 732 mmHg 19%
    18:00 +21°C° 0 mm 1 mps 732 mmHg 19%
    19:00 +19°C° 0 mm 1 mps 733 mmHg 19%
    20:00 +16°C° 0 mm 1 mps 733 mmHg 19%
    21:00 +16°C° 0 mm 1 mps 733 mmHg 19%
    22:00 +16°C° 0 mm 1 mps 733 mmHg 19%
    23:00 +16°C° 0 mm 1 mps 733 mmHg 19%

    25 February, Saturday

    Time Temperature Precipitation Wind Pressure Humidity
    00:00 +15°C° 0 mm 1 mps 733 mmHg 20%
    01:00 +15°C° 0 mm 1 mps 733 mmHg 20%
    02:00 +15°C° 0 mm 1 mps 733 mmHg 20%
    03:00 +14°C° 0 mm 2 mps 732 mmHg 21%
    04:00 +14°C° 0 mm 2 mps 732 mmHg 21%
    05:00 +14°C° 0 mm 2 mps 732 mmHg 21%
    06:00 +14°C° 0 mm 2 mps 732 mmHg 22%
    07:00 +15°C° 0 mm 2 mps 733 mmHg 22%
    08:00 +15°C° 0 mm 2 mps 733 mmHg 23%
    09:00 +17°C° 0 mm 2 mps 733 mmHg 20%
    10:00 +20°C° 0 mm 2 mps 733 mmHg 16%
    11:00 +23°C° 0 mm 2 mps 734 mmHg 13%
    12:00 +24°C° 0 mm 2 mps 733 mmHg 13%
    13:00 +25°C° 0 mm 2 mps 732 mmHg 12%
    14:00 +26°C° 0 mm 2 mps 732 mmHg 12%
    15:00 +25°C° 0 mm 2 mps 731 mmHg 13%
    16:00 +25°C° 0 mm 2 mps 731 mmHg 15%
    17:00 +25°C° 0 mm 1 mps 731 mmHg 17%
    18:00 +23°C° 0 mm 2 mps 731 mmHg 19%
    19:00 +20°C° 0 mm 2 mps 731 mmHg 20%
    20:00 +18°C° 0 mm 2 mps 732 mmHg 22%
    21:00 +17°C° 0 mm 2 mps 732 mmHg 23%
    22:00 +17°C° 0 mm 2 mps 732 mmHg 24%
    23:00 +16°C° 0 mm 2 mps 732 mmHg 25%

    26 February, Sunday

    Time Temperature Precipitation Wind Pressure Humidity
    00:00 +16°C° 0 mm 2 mps 732 mmHg 26%
    01:00 +15°C° 0 mm 2 mps 731 mmHg 26%
    02:00 +15°C° 0 mm 2 mps 731 mmHg 27%
    03:00 +14°C° 0 mm 2 mps 731 mmHg 28%
    04:00 +14°C° 0 mm 2 mps 731 mmHg 28%
    05:00 +13°C° 0 mm 2 mps 731 mmHg 29%
    06:00 +14°C° 0 mm 2 mps 731 mmHg 29%
    07:00 +15°C° 0 mm 2 mps 732 mmHg 29%
    08:00 +15°C° 0 mm 2 mps 732 mmHg 29%
    09:00 +17°C° 0 mm 2 mps 732 mmHg 25%
    10:00 +20°C° 0 mm 2 mps 733 mmHg 21%
    11:00 +23°C° 0 mm 2 mps 733 mmHg 17%
    12:00 +24°C° 0 mm 2 mps 732 mmHg 15%
    13:00 +25°C° 0 mm 2 mps 732 mmHg 14%
    14:00 +25°C° 0 mm 2 mps 731 mmHg 13%
    15:00 +25°C° 0 mm 1 mps 731 mmHg 15%
    16:00 +25°C° 0 mm 1 mps 731 mmHg 17%
    17:00 +24°C° 0 mm 1 mps 731 mmHg 19%
    18:00 +23°C° 0 mm 1 mps 731 mmHg 20%
    19:00 +21°C° 0 mm 1 mps 732 mmHg 21%
    20:00 +18°C° 0 mm 2 mps 732 mmHg 22%
    21:00 +18°C° 0 mm 2 mps 732 mmHg 23%
    22:00 +18°C° 0 mm 2 mps 732 mmHg 24%
    23:00 +17°C° 0 mm 2 mps 732 mmHg 25%
    Show more